FW3054 Weather Reports


time (UTC)temp
F
wind
direction
speed
knots
gust
knots
rain 1hr
in
rain 24hr
in
rain mn
in
humidity
%
barometer
mb
20260502235545 55 23 0.9 2.6 0.00 0.00 0.00 44 1013.6
20260502234522 55 23 1.7 5.2 0.00 0.00 0.00 43 1013.4
20260502233522 56 23 0.9 6.1 0.00 0.00 0.00 41 1013.5
20260502232522 56 23 0.9 2.6 0.00 0.00 0.00 41 1013.4
20260502231522 56 23 0.9 3.5 0.00 0.00 0.00 40 1013.3
20260502230612 56 0 1.7 6.1 0.00 0.00 0.00 39 1013.2
20260502225522 57 23 0.9 4.3 0.00 0.00 0.00 39 1013.3
20260502224547 56 23 0.9 4.3 0.00 0.00 0.00 42 1013.2
20260502223522 56 23 0.9 1.7 0.00 0.00 0.00 42 1013.2
20260502222522 56 23 0.9 2.6 0.00 0.00 0.00 42 1013.1
20260502221548 56 23 1.7 5.2 0.00 0.00 0.00 42 1013.0
20260502220522 57 23 0.9 3.5 0.00 0.00 0.00 41 1012.9
20260502215522 57 23 1.7 7.0 0.00 0.00 0.00 40 1012.9
20260502214547 57 23 1.7 3.5 0.00 0.00 0.00 41 1012.6
20260502213522 57 23 1.7 4.3 0.00 0.00 0.00 40 1012.6
20260502212522 58 23 1.7 3.5 0.00 0.00 0.00 39 1012.6
20260502211547 58 23 1.7 4.3 0.00 0.00 0.00 39 1012.3
20260502210612 59 23 1.7 3.5 0.00 0.00 0.00 38 1012.4
20260502205522 60 23 1.7 3.5 0.00 0.00 0.00 37 1012.4
20260502204522 61 23 2.6 6.1 0.00 0.00 0.00 36 1012.6
20260502203522 61 23 1.7 5.2 0.00 0.00 0.00 37 1012.7
20260502202522 60 23 2.6 5.2 0.00 0.00 0.00 37 1012.4
20260502201522 59 23 2.6 6.1 0.00 0.00 0.00 39 1012.3
20260502200547 59 23 2.6 6.1 0.00 0.00 0.00 38 1012.3
20260502195547 60 23 1.7 5.2 0.00 0.00 0.00 37 1012.5
20260502194522 61 23 1.7 4.3 0.00 0.00 0.00 36 1012.7
20260502193522 62 23 2.6 7.0 0.00 0.00 0.00 36 1012.9
20260502192547 61 23 2.6 5.2 0.00 0.00 0.00 36 1012.7
20260502191522 61 23 2.6 6.1 0.00 0.00 0.00 36 1012.8
20260502190522 61 23 2.6 7.0 0.00 0.00 0.00 35 1012.9
20260502185547 60 45 2.6 6.1 0.00 0.00 0.00 37 1013.1
20260502184522 60 23 1.7 4.3 0.00 0.00 0.00 35 1013.1
20260502183522 60 23 3.5 9.6 0.00 0.00 0.00 35 1013.1
20260502182522 60 23 2.6 6.1 0.00 0.00 0.00 38 1013.1
20260502181522 59 23 2.6 6.1 0.00 0.00 0.00 36 1013.1
20260502180522 58 45 2.6 6.1 0.00 0.00 0.00 37 1013.1
20260502163521 59 23 1.7 5.2 0.00 0.00 0.00 38 1014.3
20260502162547 59 23 1.7 3.5 0.00 0.00 0.00 39 1014.5
20260502161521 59 23 0.9 4.3 0.00 0.00 0.00 42 1014.4
20260502160521 57 23 0.9 3.5 0.00 0.00 0.00 46 1014.3
20260502151522 53 0.0 2.6 0.00 0.00 0.00 55 1014.3
20260502150521 52 0.0 0.9 0.00 0.00 0.00 57 1014.4
20260502130521 50 0.0 0.9 0.00 0.00 0.00 69 1014.0
20260502123521 50 0.0 1.7 0.00 0.00 0.00 72 1014.0
20260502122521 50 0.0 1.7 0.00 0.00 0.00 72 1014.0
20260502121521 50 0.0 1.7 0.00 0.00 0.00 73 1013.9
20260502120521 50 0.0 1.7 0.00 0.00 0.00 73 1014.3
20260502115612 50 0.0 0.9 0.00 0.00 0.00 74 1013.9
20260502114546 50 0.0 1.7 0.00 0.00 0.00 74 1013.7
20260502113521 50 0.0 0.0 0.00 0.00 0.00 75 1013.7
20260502112521 50 0.0 0.9 0.00 0.00 0.00 74 1013.5
20260502111521 50 0.0 1.7 0.00 0.00 0.00 74 1013.3
20260502110521 50 23 0.9 1.7 0.00 0.00 0.00 74 1013.4
20260502105521 50 0.0 1.7 0.00 0.00 0.00 73 1013.6
20260502104521 50 0.0 0.9 0.00 0.00 0.00 73 1013.4
20260502103521 51 0.0 0.0 0.00 0.00 0.00 74 1013.2
20260502102521 51 0.0 0.9 0.00 0.00 0.00 73 1013.2
20260502101521 51 0 0.9 2.6 0.00 0.00 0.00 73 1013.2
20260502100521 51 0.0 0.9 0.00 0.00 0.00 73 1013.2
20260502091521 52 0.0 1.7 0.00 0.00 0.00 73 1013.3
20260502090521 52 0.0 0.9 0.00 0.00 0.00 73 1013.4
20260502071520 54 0.0 1.7 0.00 0.00 0.00 70 1013.8
20260502070520 54 0.0 0.9 0.00 0.00 0.00 72 1013.9
20260502065521 54 0.0 0.9 0.00 0.00 0.00 70 1013.8
20260502064520 54 0 0.9 2.6 0.00 0.00 0.00 70 1013.8
20260502063521 54 0.0 2.6 0.00 0.00 0.00 70 1013.9
20260502062521 54 23 0.9 2.6 0.00 0.00 0.00 70 1013.8
20260502061520 55 0 0.9 2.6 0.00 0.00 0.00 70 1013.8
20260502060521 55 0 0.9 4.3 0.00 0.00 0.00 70 1014.2
20260502055521 55 0.0 0.9 0.00 0.00 0.00 70 1014.3
20260502054520 55 0.0 2.6 0.00 0.00 0.00 69 1014.2
20260502053520 55 0.0 1.7 0.00 0.00 0.00 70 1014.3
20260502052520 55 0.0 0.9 0.00 0.00 0.00 70 1014.5
20260502051545 55 0.0 0.0 0.00 0.00 0.00 69 1014.3
20260502050520 55 0.0 0.9 0.00 0.00 0.00 68 1014.2
20260502045520 54 23 0.9 2.6 0.00 0.00 0.00 68 1014.0
20260502044520 54 0.0 2.6 0.00 0.00 0.00 69 1014.0
20260502043520 54 0.0 0.9 0.00 0.00 0.00 69 1014.0
20260502042520 54 0.0 0.9 0.00 0.00 0.00 68 1013.8
20260502041546 55 0.0 0.9 0.00 0.00 0.00 67 1014.1
20260502040520 55 0.0 0.0 0.00 0.00 0.00 65 1013.8
20260502035546 55 0.0 0.0 0.00 0.00 0.00 64 1013.7
20260502034521 55 0.0 0.9 0.00 0.00 0.00 63 1013.7
20260502033521 55 0.0 0.0 0.00 0.00 0.00 61 1013.7
20260502032521 56 0.0 0.0 0.00 0.00 0.00 61 1013.7
20260502031520 56 0.0 0.0 0.00 0.00 0.00 61 1014.0
20260502030611 56 0.0 0.0 0.00 0.00 0.00 60 1014.0
20260502025521 56 0.0 0.0 0.00 0.00 0.00 60 1014.0
20260502024520 56 0.0 0.0 0.00 0.00 0.00 60 1014.1
20260502023521 56 0.0 0.0 0.00 0.00 0.00 60 1013.7
20260502022520 56 0.0 0.0 0.00 0.00 0.00 59 1013.7
20260502021546 56 0.0 0.0 0.00 0.00 0.00 58 1013.7
20260502020546 56 0.0 0.0 0.00 0.00 0.00 57 1013.5
20260502015520 56 0.0 0.0 0.00 0.00 0.00 57 1013.4
20260502014521 57 0.0 0.0 0.00 0.00 0.00 57 1013.4
20260502013520 57 0.0 0.0 0.00 0.00 0.00 56 1013.1
20260502012521 58 0.0 0.0 0.00 0.00 0.00 55 1013.0
20260502011520 58 0.0 0.0 0.00 0.00 0.00 53 1012.9
20260502010520 59 0.0 0.0 0.00 0.00 0.00 52 1012.6
20260502005520 59 0.0 0.0 0.00 0.00 0.00 50 1012.8
20260502004522 60 0.0 0.0 0.00 0.00 0.00 50 1012.8
20260502003520 61 0.0 0.9 0.00 0.00 0.00 50 1012.5
20260502002522 61 0.0 1.7 0.00 0.00 0.00 48 1012.5
20260502001520 61 23 0.9 2.6 0.00 0.00 0.00 43 1012.3
20260502000613 62 23 0.9 2.6 0.00 0.00 0.00 43 1012.1